sat.trackr.live / text

‹ back to catalog

STARLINK-3159

NORAD 49415 · 2021-104H

PAYLOAD ACTIVE UNKNOWN

§ Identity

Operator
Country
US
Launch date
2021-11-13
Launch site
AFETR
Launch vehicle
Mass (kg)
RCS (m²)

Purposes: comms

External: N2YO · Heavens-Above · Gunter

§ Orbital elements

Epoch: 2026-09-19T22:31:39.793728Z

Period
93.85 min
Inclination
53.1605°
Eccentricity
0.0001141
Mean motion
15.34379223 rev/d
Perigee alt
462.0 km
Apogee alt
463.5 km
Semi-major
6,840.9 km
B*
7.3363e-5
RAAN
54.0033°
Arg perigee
88.9649°
Mean anomaly
271.1484°
Rev number
26,826

§ Raw data

STARLINK-31591 49415U 21104H   26262.93865502  .00002102  00000+0  73363-4 0  99972 49415  53.1605  54.0033 0001141  88.9649 271.1484 15.34379223268261

JSON: /api/v1/satellites/49415 · /tle

For live sub-satellite position, see the globe view (requires WebGL).

§ Visibility from observer

Set your observer location to see the next 7 days of passes ≥ 10°. The values pass through the URL so the page stays shareable.

No JS? Fill the form by hand. The geolocation button needs JavaScript.